Wind_Speed
4 3 3 2 2 1 1 1 2 1 2 3 5 5 6 7 8 10 11 12 13 15 16 17 18 20 21 22 24 25 26 27 28 29 30 31 32 32 33 35 36 37 39 41 43 45 46 47 47
5 5 4 4 5 5 5 5 5 5 7 7 8 9 9 10 11 12 13 15 17 18 19 21 22 24 25 27 28 30 31 32 33 35 35 36 37 37 37 38 38 39 39 41 42 44 46 48 49
8 8 8 8 8 9 9 9 10 11 11 11 11 12 12 13 14 15 16 18 19 21 23 24 26 28 30 32 33 35 37 38 39 41 42 42 43 44 44 44 44 44 44 44 44 44 46 47 49
11 11 11 11 11 12 12 13 13 13 13 13 12 12 14 15 15 17 18 20 22 24 26 28 30 32 34 36 38 40 42 43 45 46 47 48 49 50 50 50 50 50 50 50 49 48 48 48 49
12 13 13 13 14 14 15 14 13 13 12 12 12 13 14 16 17 19 21 23 25 28 30 32 34 37 39 41 43 45 46 48 49 51 52 53 54 55 56 56 56 56 56 55 55 55 54 53 52
16 15 15 15 15 14 14 13 12 11 11 11 12 14 16 18 20 22 25 27 29 32 34 36 39 41 43 45 47 49 51 53 55 56 57 59 60 61 62 62 62 62 62 61 61 60 59 58 57
17 16 16 15 14 13 12 11 11 11 11 12 14 16 19 21 24 26 28 31 33 35 38 40 43 45 48 50 52 54 56 58 60 62 63 65 66 67 68 69 69 69 68 67 67 66 65 64 63
16 15 14 13 12 11 11 11 12 13 13 15 17 20 22 25 27 29 32 34 36 39 41 44 47 49 52 55 57 59 62 63 65 67 69 71 72 73 74 75 75 75 75 74 73 72 71 69 68
13 12 11 10 10 10 11 12 14 16 17 19 21 23 26 28 30 32 34 37 39 42 45 48 51 53 56 59 61 64 66 68 70 72 74 76 77 79 80 81 81 81 81 81 80 79 77 75 74
10 9 9 9 10 11 13 15 17 19 20 22 24 27 29 31 33 35 37 40 42 45 48 51 54 56 59 62 64 67 70 72 75 77 79 80 82 83 84 85 86 87 87 87 87 86 85 82 80
8 8 9 10 12 14 16 18 20 22 24 25 28 30 32 34 35 37 40 42 45 48 51 54 56 59 62 64 67 70 73 75 78 80 82 84 86 87 89 90 91 92 93 93 93 92 92 90 88
7 9 11 13 16 18 20 22 24 26 27 29 30 32 34 36 38 40 42 45 47 50 53 56 59 62 65 68 70 73 76 78 80 83 85 87 89 91 92 93 93 93 93 94 95 95 95 95 95
9 11 14 17 19 21 24 26 28 28 29 31 32 34 36 38 40 42 44 46 49 52 55 58 61 64 68 71 74 77 79 82 84 87 90 91 91 91 90 88 87 86 85 86 87 88 91 94 96
13 15 18 20 22 24 26 27 28 29 30 32 33 35 38 40 41 43 46 48 51 54 58 61 65 68 72 75 78 80 83 86 89 90 90 89 87 85 82 79 78 76 76 76 77 78 80 83 87
17 19 21 23 25 26 27 27 28 29 30 32 34 36 38 40 42 45 48 50 54 57 61 65 69 72 76 79 82 84 87 89 90 88 86 84 81 78 76 74 72 70 69 69 70 70 72 74 77
21 23 24 25 26 27 27 26 28 29 30 32 34 36 39 41 44 46 49 52 56 60 65 69 72 76 79 82 85 88 89 89 86 83 80 78 76 74 72 70 68 66 65 64 64 64 66 68 70
23 24 25 26 26 26 26 26 28 29 30 32 35 37 40 42 45 48 51 55 59 63 68 72 75 78 81 84 87 88 87 84 81 79 77 75 73 70 67 65 62 60 58 58 58 58 59 61 64
23 24 25 25 25 25 25 27 28 30 31 33 35 38 41 43 46 50 53 57 62 67 71 74 77 80 82 85 86 85 82 79 78 76 74 72 69 65 61 58 55 53 52 51 50 51 53 55 58
23 23 23 23 24 24 25 27 29 30 31 33 36 39 42 45 48 52 56 60 65 69 73 76 78 80 83 85 84 82 78 76 75 74 72 69 65 61 58 54 51 49 47 46 46 45 46 49 52
22 22 22 23 24 25 26 27 29 30 32 35 38 41 44 47 50 54 58 63 68 71 74 77 79 81 84 85 83 79 76 75 73 72 69 65 62 59 55 52 49 47 45 44 43 43 42 43 46
21 22 23 24 25 26 27 26 29 31 34 37 40 43 46 49 52 56 61 65 69 72 75 77 80 82 84 83 79 76 74 72 70 67 64 62 60 57 55 53 50 48 46 44 43 42 41 40 42
22 23 24 25 26 27 29 28 30 32 36 39 41 44 47 51 54 58 63 67 70 73 75 78 80 82 83 80 77 75 73 70 69 66 63 61 59 58 56 54 53 51 49 48 47 45 43 41 40
22 23 24 25 26 26 28 30 31 34 37 40 43 46 49 52 56 60 64 67 70 73 76 78 81 82 81 78 75 73 71 70 68 65 63 61 58 58 57 56 55 54 53 53 52 50 48 45 42
23 24 24 25 26 26 28 31 33 36 39 42 44 47 50 53 57 61 65 68 71 73 76 79 80 80 78 76 74 72 70 68 66 64 63 60 58 58 58 58 57 57 57 56 54 52 50 48 45
25 26 27 27 27 28 30 32 35 37 40 43 46 48 51 54 58 62 65 68 71 74 76 78 79 78 76 74 72 70 69 68 66 65 64 62 60 60 60 60 60 59 58 56 55 54 52 50 48
25 27 29 30 30 29 30 32 34 38 41 44 46 48 51 55 58 62 65 68 71 73 75 77 77 76 74 72 70 69 68 66 66 66 65 64 63 64 64 63 61 58 55 53 51 51 51 50 49
26 27 29 31 32 32 32 34 36 40 42 44 47 49 52 55 59 62 66 68 71 73 74 76 76 75 72 70 69 67 66 66 65 66 66 66 66 67 66 64 60 55 50 45 42 42 44 45 46
27 29 31 33 36 37 35 36 39 41 43 45 47 49 52 56 59 63 66 68 70 72 74 75 75 73 71 69 68 66 65 65 65 66 67 67 68 68 66 63 58 51 45 40 34 31 32 36 40
28 30 32 33 35 38 39 37 40 41 43 45 47 49 53 56 60 63 66 68 70 71 73 74 73 71 69 67 66 65 64 65 65 66 67 68 69 69 66 62 55 48 41 37 31 23 20 25 32
30 32 34 35 36 37 39 39 42 43 44 46 47 50 53 57 60 63 65 67 69 71 72 72 71 69 67 66 65 64 64 64 64 65 67 69 70 68 66 61 53 46 41 37 31 22 14 14 22
Wind_Direction
120 132 133 116 118 108 28 336 321 328 29 30 32 31 23 14 8 0 355 350 345 340 334 329 325 321 317 314 311 308 305 303 301 299 296 294 291 288 285 282 278 274 270 267 263 260 258 257 255
108 102 91 80 81 80 73 64 59 56 53 49 44 38 31 24 17 8 358 350 342 335 329 325 320 317 313 310 308 305 303 301 299 297 295 293 291 288 286 284 281 278 275 271 267 264 260 258 256
88 83 74 70 68 72 71 67 66 62 56 50 42 33 24 15 5 356 347 339 332 326 321 317 314 311 308 306 304 302 300 298 297 295 293 291 289 287 285 283 281 278 276 274 271 267 264 260 257
81 78 73 70 70 71 72 69 65 59 52 42 30 18 8 359 350 342 334 327 322 318 315 312 310 308 306 304 302 301 299 298 296 294 292 291 289 287 285 283 280 278 276 274 271 269 266 263 260
78 76 76 75 76 76 73 68 61 52 41 27 12 0 352 343 335 328 323 319 316 314 313 311 309 308 306 305 303 302 300 298 297 295 293 291 289 287 285 283 281 278 276 274 272 269 267 264 262
84 82 83 79 76 73 67 58 48 37 23 8 354 344 337 331 326 322 319 317 316 315 313 312 310 309 307 306 304 302 301 300 298 296 295 293 291 289 286 284 282 279 276 274 271 269 267 264 262
89 84 81 77 70 62 51 38 27 14 0 349 340 332 328 325 322 320 318 317 315 314 313 312 311 309 308 306 305 303 302 301 299 297 296 294 292 290 287 285 283 280 277 274 271 269 266 264 261
85 82 75 66 55 44 29 16 4 353 343 336 330 325 323 321 320 318 317 316 316 314 313 312 311 310 309 308 307 306 304 302 300 298 296 294 292 290 288 286 283 280 278 275 272 269 266 263 261
81 74 64 52 36 21 8 356 347 340 333 328 324 321 320 319 319 318 318 317 316 315 314 313 313 312 311 309 308 306 304 302 300 298 296 294 292 289 287 285 283 280 278 275 272 269 266 263 260
69 57 44 27 12 360 350 342 335 330 326 322 320 319 319 319 319 318 318 318 317 316 315 314 313 311 309 308 307 305 304 302 300 298 296 294 291 289 287 285 282 280 277 274 272 269 266 263 260
46 28 11 358 349 342 337 333 329 326 323 321 320 319 319 319 319 319 319 319 318 316 315 313 311 310 309 307 306 305 304 302 300 298 296 295 293 290 288 285 282 280 277 274 271 268 265 262 259
13 358 347 339 335 332 330 328 327 325 322 321 320 319 319 319 320 320 320 319 317 315 313 312 311 310 309 309 308 306 305 303 302 300 298 296 294 291 289 287 284 281 278 275 272 269 265 262 258
342 335 331 329 328 327 326 325 324 323 322 321 320 319 320 321 321 321 320 318 316 315 314 313 313 312 312 311 310 310 308 306 305 303 301 299 297 295 293 290 287 284 280 276 272 269 265 262 258
327 325 324 323 322 322 322 322 321 321 321 320 320 320 321 321 321 320 319 318 317 317 317 317 316 316 316 315 314 312 311 310 308 306 305 303 301 299 296 293 289 285 281 277 273 268 264 261 258
319 319 319 319 318 319 320 320 320 320 320 320 320 321 321 321 321 321 320 319 319 320 320 320 320 319 318 317 316 315 314 313 311 310 309 307 305 302 299 296 292 288 284 279 274 269 264 260 256
316 316 317 318 319 319 320 320 320 321 321 320 320 320 321 321 322 321 321 321 322 323 323 323 322 321 321 320 319 318 316 315 314 313 312 310 308 306 303 299 295 291 287 282 277 272 266 261 256
316 318 319 320 320 319 320 321 321 321 322 321 321 321 322 323 323 323 323 324 325 326 326 325 324 323 323 322 321 320 319 318 318 317 315 314 311 309 306 302 298 294 290 285 280 274 268 262 257
319 320 320 320 320 321 322 323 322 322 322 322 322 323 324 324 324 326 327 328 328 328 327 327 326 325 324 323 322 322 322 321 321 320 318 317 314 312 309 306 302 298 294 288 283 278 272 266 259
322 321 320 320 322 323 324 324 323 323 323 324 325 326 326 326 327 329 330 331 331 330 329 328 327 326 325 324 323 323 324 323 323 322 321 319 317 315 312 309 305 301 296 292 287 282 276 270 263
325 324 323 324 325 325 326 326 323 324 326 327 327 328 329 329 330 332 333 333 332 331 330 329 328 326 326 326 326 326 326 326 326 325 323 321 319 316 313 309 305 301 297 293 290 285 280 275 268
328 328 328 327 328 327 327 329 325 327 328 329 330 331 332 332 333 334 334 334 333 332 331 330 328 328 328 328 328 329 329 328 328 327 325 322 320 317 314 310 306 301 296 292 289 286 282 277 272
333 333 331 330 330 330 329 331 329 331 331 332 333 334 334 335 335 335 335 334 334 333 331 330 330 330 330 330 331 331 331 330 330 329 327 325 322 319 315 312 307 301 296 291 287 283 281 276 271
338 336 335 333 332 332 330 332 333 333 334 334 335 336 336 336 336 336 336 335 334 333 332 332 331 332 332 332 333 333 333 333 332 331 330 327 324 320 316 312 307 301 296 290 285 280 277 273 268
342 341 340 338 337 337 336 336 334 336 336 336 337 338 338 337 337 337 336 336 335 334 334 333 334 333 334 334 335 335 335 335 334 333 332 330 326 323 318 313 308 302 296 290 283 278 273 269 265
349 347 346 347 347 345 341 338 336 337 338 339 339 339 338 337 338 338 337 337 336 336 335 335 335 335 335 336 336 337 337 337 336 335 335 333 330 327 323 317 312 306 299 291 283 276 269 265 260
357 353 351 349 350 349 344 340 338 339 340 341 340 339 338 338 339 339 338 338 338 337 337 337 336 337 337 338 339 339 339 339 338 338 338 337 335 332 328 324 319 313 306 296 286 275 267 260 255
3 0 356 351 350 351 350 342 342 343 342 341 340 339 339 339 339 340 340 339 339 339 338 338 338 338 339 340 341 341 341 341 341 342 342 341 339 337 335 332 328 323 318 309 296 280 266 256 250
7 3 0 356 351 351 352 345 345 343 342 341 340 339 339 340 340 341 341 341 340 340 339 340 340 341 341 343 343 343 343 344 345 345 345 345 344 343 341 339 337 335 332 325 313 293 270 252 244
10 7 3 360 355 350 350 348 345 343 342 341 340 340 340 341 342 342 342 342 342 341 341 342 342 343 343 345 345 345 346 347 347 348 348 348 348 347 347 346 346 346 346 343 335 318 284 252 238
12 8 5 2 359 354 350 348 345 344 342 341 341 341 341 342 343 343 343 343 343 343 343 343 344 344 345 346 347 348 349 350 350 351 351 352 352 352 352 353 353 353 354 354 352 345 318 258 232
Height
5864 5864 5866 5867 5868 5868 5868 5869 5869 5869 5869 5869 5869 5868 5868 5868 5868 5869 5866 5863 5862 5861 5860 5858 5857 5855 5853 5851 5850 5848 5846 5844 5842 5840 5839 5837 5836 5834 5833 5832 5831 5830 5830 5830 5830 5831 5832 5833 5834
5866 5867 5868 5869 5868 5868 5870 5870 5870 5870 5870 5870 5869 5869 5868 5867 5866 5866 5864 5863 5861 5859 5858 5856 5854 5852 5850 5848 5845 5843 5841 5839 5836 5834 5832 5830 5828 5827 5825 5824 5822 5821 5821 5820 5821 5821 5822 5823 5824
5868 5869 5870 5870 5870 5870 5871 5871 5871 5871 5871 5870 5869 5869 5868 5867 5866 5864 5863 5861 5859 5857 5855 5853 5850 5848 5845 5843 5840 5837 5835 5832 5829 5826 5824 5821 5819 5817 5816 5814 5813 5812 5811 5811 5811 5811 5811 5812 5813
5872 5872 5872 5872 5871 5872 5872 5873 5872 5872 5871 5871 5870 5869 5867 5866 5865 5863 5861 5859 5857 5854 5852 5849 5846 5843 5840 5836 5833 5830 5827 5824 5820 5817 5814 5811 5808 5806 5804 5802 5801 5800 5800 5799 5799 5799 5800 5801 5802
5874 5874 5874 5873 5874 5874 5874 5874 5874 5873 5872 5871 5869 5868 5866 5864 5862 5860 5858 5856 5853 5850 5847 5844 5840 5836 5833 5829 5825 5821 5818 5814 5810 5807 5803 5800 5796 5793 5791 5789 5787 5786 5786 5786 5786 5786 5787 5788 5789
5876 5876 5877 5876 5876 5876 5876 5875 5875 5873 5872 5870 5869 5867 5864 5862 5860 5858 5855 5852 5848 5845 5841 5837 5833 5829 5825 5821 5816 5812 5808 5803 5799 5794 5790 5786 5782 5779 5776 5773 5771 5770 5769 5769 5770 5770 5771 5773 5775
5879 5879 5878 5879 5878 5878 5877 5876 5874 5873 5871 5870 5868 5865 5862 5860 5857 5854 5851 5848 5844 5839 5835 5831 5826 5821 5816 5811 5806 5801 5796 5791 5786 5780 5776 5771 5766 5762 5759 5756 5753 5752 5751 5751 5751 5752 5754 5756 5758
5881 5882 5880 5880 5879 5879 5877 5875 5874 5872 5870 5868 5866 5863 5860 5857 5854 5850 5847 5843 5838 5834 5829 5824 5818 5813 5807 5801 5795 5789 5783 5777 5772 5766 5760 5754 5749 5744 5740 5736 5733 5731 5730 5729 5729 5731 5733 5736 5739
5884 5884 5882 5881 5881 5879 5877 5875 5873 5871 5868 5866 5863 5860 5857 5853 5850 5846 5842 5837 5833 5827 5822 5816 5810 5803 5797 5791 5784 5777 5770 5763 5757 5750 5743 5737 5731 5725 5720 5715 5711 5708 5706 5706 5705 5707 5710 5713 5717
5886 5885 5883 5882 5881 5879 5877 5875 5872 5869 5867 5863 5860 5856 5853 5849 5845 5841 5836 5831 5826 5820 5814 5807 5801 5795 5788 5781 5773 5765 5757 5749 5741 5733 5725 5717 5710 5703 5697 5692 5687 5683 5681 5679 5679 5681 5684 5688 5692
5886 5885 5883 5882 5880 5878 5876 5874 5871 5867 5864 5860 5857 5853 5848 5844 5840 5835 5830 5825 5819 5813 5806 5800 5793 5785 5778 5770 5761 5752 5743 5734 5724 5714 5705 5696 5687 5679 5671 5665 5660 5655 5652 5650 5650 5651 5654 5659 5664
5886 5884 5883 5881 5879 5877 5874 5871 5868 5864 5861 5857 5852 5848 5844 5839 5834 5829 5824 5818 5812 5805 5798 5791 5783 5775 5766 5757 5747 5737 5726 5715 5704 5693 5683 5672 5662 5652 5643 5635 5629 5624 5620 5618 5617 5619 5622 5627 5633
5886 5884 5882 5880 5877 5875 5871 5868 5865 5861 5856 5852 5848 5843 5838 5833 5828 5823 5817 5811 5805 5797 5790 5781 5772 5763 5752 5742 5730 5718 5706 5694 5681 5669 5656 5644 5633 5623 5613 5605 5598 5592 5587 5585 5585 5585 5588 5592 5599
5885 5883 5881 5878 5875 5872 5869 5865 5862 5857 5852 5848 5843 5838 5833 5828 5823 5817 5811 5804 5797 5788 5780 5770 5760 5748 5736 5724 5711 5698 5684 5671 5657 5642 5629 5616 5605 5594 5585 5577 5570 5564 5559 5556 5555 5555 5557 5560 5565
5884 5882 5879 5876 5873 5869 5866 5862 5858 5853 5849 5844 5839 5833 5828 5822 5817 5811 5804 5796 5788 5778 5768 5757 5745 5732 5719 5705 5691 5677 5662 5647 5633 5619 5605 5592 5580 5570 5560 5552 5545 5539 5534 5530 5528 5527 5528 5531 5535
5882 5879 5876 5873 5869 5865 5863 5859 5854 5849 5845 5840 5834 5829 5823 5817 5811 5804 5796 5787 5778 5768 5756 5744 5731 5717 5702 5687 5671 5656 5640 5625 5611 5597 5583 5571 5559 5548 5538 5529 5522 5516 5510 5506 5504 5503 5503 5505 5509
5879 5876 5872 5869 5865 5861 5858 5855 5850 5845 5840 5835 5830 5824 5818 5812 5804 5796 5788 5778 5768 5756 5744 5731 5717 5702 5686 5670 5653 5637 5620 5605 5590 5576 5564 5551 5539 5528 5518 5509 5501 5495 5489 5485 5482 5481 5480 5482 5484
5876 5872 5869 5866 5862 5858 5854 5850 5846 5841 5836 5831 5825 5819 5813 5805 5797 5788 5779 5768 5757 5745 5732 5718 5703 5688 5672 5655 5638 5620 5603 5588 5573 5559 5546 5533 5522 5511 5501 5492 5484 5477 5472 5467 5463 5461 5460 5460 5462
5873 5869 5866 5863 5859 5855 5851 5847 5841 5836 5831 5826 5820 5814 5806 5798 5789 5780 5770 5759 5747 5734 5720 5705 5690 5675 5659 5642 5625 5609 5592 5576 5560 5545 5531 5517 5506 5495 5486 5477 5469 5462 5457 5452 5448 5445 5443 5442 5442
5870 5867 5863 5859 5855 5851 5847 5843 5837 5832 5827 5821 5815 5808 5800 5791 5781 5771 5761 5749 5737 5723 5709 5693 5678 5661 5645 5627 5610 5593 5577 5562 5547 5532 5517 5503 5492 5481 5472 5464 5456 5449 5444 5438 5434 5430 5429 5427 5425
5867 5864 5859 5855 5851 5847 5843 5840 5833 5827 5822 5816 5809 5801 5792 5783 5773 5763 5752 5740 5727 5713 5698 5682 5666 5648 5631 5613 5597 5581 5566 5550 5536 5522 5507 5493 5480 5469 5459 5450 5443 5436 5430 5425 5420 5417 5415 5414 5411
5864 5860 5856 5852 5847 5843 5838 5835 5829 5823 5817 5810 5803 5794 5785 5776 5766 5755 5744 5731 5717 5702 5687 5670 5653 5635 5617 5600 5584 5568 5554 5539 5525 5510 5496 5482 5468 5456 5446 5437 5428 5421 5414 5409 5405 5402 5400 5399 5399
5861 5857 5853 5849 5844 5840 5834 5830 5826 5818 5811 5804 5797 5788 5778 5769 5759 5748 5735 5722 5708 5692 5676 5659 5641 5623 5605 5587 5572 5557 5541 5527 5512 5498 5485 5471 5458 5445 5433 5422 5412 5404 5396 5391 5387 5384 5383 5383 5384
5858 5855 5852 5847 5842 5837 5831 5825 5820 5813 5806 5799 5791 5781 5772 5762 5752 5740 5727 5713 5698 5682 5665 5648 5630 5612 5594 5578 5562 5547 5532 5517 5503 5489 5475 5461 5447 5433 5420 5407 5395 5384 5376 5369 5365 5363 5363 5364 5366
5856 5852 5848 5843 5839 5834 5827 5821 5816 5808 5801 5793 5785 5776 5766 5756 5745 5733 5719 5705 5689 5673 5656 5638 5620 5603 5586 5569 5553 5538 5523 5508 5493 5478 5464 5449 5435 5421 5406 5390 5377 5364 5353 5346 5341 5340 5341 5343 5347
5854 5849 5845 5839 5835 5831 5824 5818 5813 5804 5796 5787 5779 5770 5761 5750 5738 5726 5712 5697 5681 5665 5648 5630 5612 5595 5578 5562 5546 5530 5514 5499 5484 5468 5453 5437 5422 5406 5389 5372 5356 5341 5329 5321 5316 5314 5316 5321 5327
5853 5848 5843 5837 5832 5827 5821 5814 5807 5799 5791 5783 5774 5765 5755 5744 5732 5719 5705 5689 5673 5657 5640 5623 5605 5588 5571 5555 5539 5523 5508 5492 5477 5461 5444 5427 5410 5393 5374 5356 5338 5323 5310 5300 5293 5291 5294 5300 5307
5852 5846 5841 5834 5827 5821 5817 5809 5803 5794 5787 5779 5769 5759 5749 5738 5726 5712 5697 5682 5666 5649 5633 5615 5598 5580 5564 5548 5532 5517 5502 5486 5470 5454 5437 5420 5402 5382 5363 5344 5325 5310 5296 5285 5278 5274 5275 5281 5289
5851 5845 5839 5833 5826 5818 5812 5809 5799 5791 5782 5774 5765 5754 5744 5732 5719 5705 5691 5675 5659 5643 5626 5609 5591 5574 5558 5542 5527 5512 5497 5481 5465 5448 5431 5413 5395 5375 5355 5335 5317 5302 5290 5279 5271 5265 5265 5269 5276
5849 5843 5838 5832 5825 5817 5809 5806 5795 5787 5778 5769 5760 5749 5738 5726 5713 5699 5684 5669 5653 5637 5620 5603 5586 5569 5554 5538 5523 5508 5492 5477 5461 5444 5427 5409 5390 5370 5350 5331 5314 5300 5289 5278 5269 5263 5261 5263 5268